sat.trackr.live / text

‹ back to catalog

KUIPER-00095

NORAD 65134 · 2025-171C

PAYLOAD ACTIVE UNKNOWN

§ Identity

Operator
Country
US
Launch date
2025-08-11
Launch site
AFETR
Launch vehicle
Mass (kg)
RCS (m²)

External: N2YO · Heavens-Above · Gunter

§ Orbital elements

Epoch: 2026-09-21T13:28:07.047552Z

Period
97.30 min
Inclination
51.8998°
Eccentricity
0.0000348
Mean motion
14.79936269 rev/d
Perigee alt
629.3 km
Apogee alt
629.8 km
Semi-major
7,007.7 km
B*
3.0105e-4
RAAN
359.4643°
Arg perigee
105.2311°
Mean anomaly
254.8690°
Rev number
6,207

§ Raw data

KUIPER-000951 65134U 25171C   26264.56119268  .00002075  00000+0  30105-3 0  99982 65134  51.8998 359.4643 0000348 105.2311 254.8690 14.79936269 62078

JSON: /api/v1/satellites/65134 · /tle

For live sub-satellite position, see the globe view (requires WebGL).

§ Visibility from observer

Set your observer location to see the next 7 days of passes ≥ 10°. The values pass through the URL so the page stays shareable.

No JS? Fill the form by hand. The geolocation button needs JavaScript.